Voltar ao catálogo

COSMOS 1934 DEB

AtivoPO
NORAD 22919·DEBRIS·🇷🇺 Russia

Lançado Mar 22, 1988 de Plesetsk Cosmodrome

Loading…

Próximas Passagens (próximas 24 horas)

TLE

AtualizadoSource: Space-Track

Época: Sep 14, 2026, 09:29 UTC

1 22919U 88023D   26257.39517516  .00000636  00000-0  45756-3 0  9998
2 22919  82.9440 294.5292 0033548  50.7489 324.2146 13.95166563819815

Acompanhe COSMOS 1934 DEB em tempo real com AllMySat

Download on the App Store